This is the latest recevied weather packets stored in our database for station/object N2PPN. If no packets are shown the sender has not sent any weather packets the latest 10 day(s).
| Time | Temp. | Humidity | Pressure | Rain* | Wind** | Luminosity | Snow |
|---|---|---|---|---|---|---|---|
| 1778103247 | 13.89° C | 94% | 1010.4 hPa | 0 mm | - | 54 W/m² | - |
| 1778102944 | 13.89° C | 95% | 1010.6 hPa | 0 mm | - | 71 W/m² | - |
| 1778102640 | 14.44° C | 94% | 1010.2 hPa | 0 mm | - | 70 W/m² | - |
| 1778102030 | 14.44° C | 94% | 1010.3 hPa | 0 mm | - | 74 W/m² | - |
| 1778101728 | 14.44° C | 95% | 1010.2 hPa | 0 mm | - | 79 W/m² | - |
| 1778099909 | 13.89° C | 95% | 1010.1 hPa | 0 mm | - | 119 W/m² | - |
| 1778098091 | 13.89° C | 95% | 1010.6 hPa | 0 mm | - | 52 W/m² | - |
| 1778097787 | 13.33° C | 95% | 1010.7 hPa | 0 mm | - | 42 W/m² | - |
| 1778094749 | 13.89° C | 94% | 1011.1 hPa | 0 mm | - | 56 W/m² | - |
| 1778091416 | 13.89° C | 97% | 1011.5 hPa | 0 mm | - | 156 W/m² | - |
| 1778090197 | 13.89° C | 97% | 1011.4 hPa | 0 mm | - | 238 W/m² | - |
| 1778088980 | 13.89° C | 96% | 1011.8 hPa | 0 mm | - | 167 W/m² | - |
| 1778088070 | 13.89° C | 96% | 1012.1 hPa | 0 mm | - | 167 W/m² | - |
| 1778087768 | 13.89° C | 96% | 1012.5 hPa | 0 mm | - | 226 W/m² | - |
| 1778085034 | 14.44° C | 90% | 1012.9 hPa | 0 mm | - | 86 W/m² | - |
| 1778084427 | 14.44° C | 90% | 1013 hPa | 0 mm | - | 132 W/m² | - |
| 1778083816 | 15° C | 90% | 1013.3 hPa | 0 mm | - | 141 W/m² | - |
| 1778082909 | 14.44° C | 90% | 1013.3 hPa | 0 mm | - | 143 W/m² | - |
| 1778077865 | 15° C | 89% | 1013.2 hPa | 0 mm | - | 184 W/m² | - |
| 1778076957 | 15° C | 89% | 1013.7 hPa | 0 mm | - | 163 W/m² | - |
| 1778076656 | 15° C | 88% | 1013.7 hPa | 0 mm | - | 179 W/m² | - |
| 1778076353 | 15.56° C | 88% | 1013.6 hPa | 0 mm | - | 242 W/m² | - |
| 1778074532 | 15° C | 89% | 1013.9 hPa | 0 mm | - | 371 W/m² | - |
| 1778074230 | 15° C | 89% | 1013.7 hPa | 0 mm | - | 191 W/m² | - |
| 1778073927 | 15° C | 89% | 1013.8 hPa | 0 mm | - | 215 W/m² | - |
* Rain latest hour (hover to see other rain measurements)
** Current wind speed in m/s (hover to see current wind gust speed)